Back to catalog

STARLINK-34424

AliveCommunicationsVLEO
NORAD 64295·PAYLOAD·🇺🇸 United States

Launched Jun 8, 2025 from Vandenberg Space Force Base

Loading…

Next Passes (next 24 hours)

TLE

FreshSource: CelesTrak SupGP

Epoch: Sep 14, 2026, 15:17 UTC

1 64295C 25123E   26257.63729167 -.00045388  00000+0 -15790-2 0  2572
2 64295  70.0006  76.3527 0003301 269.3400  86.7190 15.29600604    17

Track STARLINK-34424 in real time with AllMySat

Download on the App Store